Retour au catalogue

STARLINK-30412

ActifCommunicationsVLEO
NORAD 57854·PAYLOAD·🇺🇸 United States

Lancé Sep 12, 2023 depuis Vandenberg Space Force Base

Loading…

Prochains Passages (prochaines 24 heures)

TLE

FraisSource: CelesTrak SupGP

Époque: Sep 15, 2026, 02:31 UTC

1 57854C 23141Q   26258.10534722  .00046683  00000+0  13793-2 0  2586
2 57854  53.1562 122.6718 0001251  82.9966 199.2391 15.34366051    18

Suivez STARLINK-30412 en temps réel avec AllMySat

Download on the App Store